Terug naar catalogus

FENGYUN 1C DEB

ActiefSSO
NORAD 38829·DEBRIS·🇨🇳 China

Gelanceerd May 10, 1999 vanaf Taiyuan Satellite Launch Center

Loading…

Volgende Passages (komende 24 uur)

TLE

VersSource: Space-Track

Epoch: Sep 14, 2026, 06:39 UTC

1 38829U 99025EVV 26257.27766229  .00000519  00000-0  31802-3 0  9990
2 38829  98.7389 270.2768 0039998 331.7987  28.1018 14.09708479680142

Volg FENGYUN 1C DEB in realtime met AllMySat

Download on the App Store